This is the latest recevied weather packets stored in our database for station/object N1ORT. If no packets are shown the sender has not sent any weather packets the latest 10 day(s).
| Time | Temp. | Humidity | Pressure | Rain* | Wind** | Luminosity | Snow |
|---|---|---|---|---|---|---|---|
| 1788453472 | 19.44° C | 98% | 1012 hPa | 0 mm | - | 353 W/m² | - |
| 1788453169 | 18.89° C | 99% | 1012 hPa | 0 mm | - | 282 W/m² | - |
| 1788452864 | 18.89° C | 99% | 1012.1 hPa | 0 mm | - | 85 W/m² | - |
| 1788452560 | 18.89° C | 99% | 1012.2 hPa | 0 mm | - | 100 W/m² | - |
| 1788452256 | 18.89° C | 99% | 1012.1 hPa | 0 mm | - | 136 W/m² | - |
| 1788451951 | 18.89° C | 99% | 1012.3 hPa | 0 mm | - | 149 W/m² | - |
| 1788451647 | 18.89° C | 99% | 1011.9 hPa | 0 mm | - | 158 W/m² | - |
| 1788451346 | 18.89° C | 99% | 1012.3 hPa | 0 mm | - | 181 W/m² | - |
| 1788451044 | 18.33° C | 99% | 1012.3 hPa | 0 mm | - | 283 W/m² | - |
| 1788450739 | 18.33° C | 99% | 1012.3 hPa | 0 mm | - | 208 W/m² | - |
| 1788450435 | 18.33° C | 99% | 1012.5 hPa | 0 mm | - | 130 W/m² | - |
| 1788450131 | 18.33° C | 99% | 1012.6 hPa | 0 mm | - | 191 W/m² | - |
| 1788449826 | 18.33° C | 99% | 1012.7 hPa | 0 mm | - | 173 W/m² | - |
| 1788449522 | 18.33° C | 99% | 1012.8 hPa | 0 mm | - | 178 W/m² | - |
| 1788449218 | 17.78° C | 99% | 1012.5 hPa | 0 mm | - | 150 W/m² | - |
| 1788448914 | 17.78° C | 99% | 1012.7 hPa | 0 mm | - | 147 W/m² | - |
| 1788448614 | 17.78° C | 99% | 1012.8 hPa | 0 mm | - | 167 W/m² | - |
| 1788448309 | 17.78° C | 99% | 1012.8 hPa | 0 mm | - | 155 W/m² | - |
| 1788448008 | 17.78° C | 99% | 1012.8 hPa | 0 mm | - | 188 W/m² | - |
| 1788447704 | 17.78° C | 99% | 1012.7 hPa | 0 mm | - | 198 W/m² | - |
| 1788447398 | 17.78° C | 99% | 1012.9 hPa | 0 mm | - | 158 W/m² | - |
| 1788447116 | 17.78° C | 99% | 1013.1 hPa | 0 mm | - | 61 W/m² | - |
| 1788446791 | 17.78° C | 99% | 1013.1 hPa | 0 mm | - | 114 W/m² | - |
| 1788446488 | 17.78° C | 99% | 1013 hPa | 0 mm | - | 106 W/m² | - |
| 1788446184 | 17.78° C | 99% | 1013 hPa | 0 mm | - | 114 W/m² | - |
* Rain latest hour (hover to see other rain measurements)
** Current wind speed in m/s (hover to see current wind gust speed)